Temperature
19 18 18 18 17 17 17 17 16 16 16 16 16 15 15 15 15 15 15 15 14 14 14 14 14 14 14 14 14 14 14 14 14 14 14 14 14 14 14 14 14 14 14
18 18 18 18 18 17 17 17 16 16 16 16 16 15 15 15 15 15 14 14 14 14 14 14 14 14 14 14 14 14 14 14 14 14 14 13 13 13 13 13 13 13 13
19 18 18 18 18 17 17 17 16 16 16 15 15 15 15 15 15 15 14 14 14 14 14 14 14 14 14 14 14 14 14 14 14 14 14 14 13 13 13 13 13 13 13
19 19 18 18 18 17 17 17 16 16 16 15 15 15 15 15 15 15 14 14 14 14 14 14 14 14 14 14 14 14 14 14 14 14 14 13 13 13 13 13 13 13 13
19 19 18 18 18 17 17 17 16 16 16 15 15 15 15 15 15 14 14 14 14 14 14 14 14 14 14 14 14 14 13 13 13 13 13 13 13 13 13 13 13 13 12
19 19 18 18 18 17 17 17 16 16 16 15 15 15 15 15 15 15 14 14 14 14 14 14 14 14 13 13 13 13 13 13 13 13 13 13 13 13 13 13 13 13 12
19 18 18 18 18 17 17 17 16 16 16 16 15 15 15 15 15 15 14 14 14 14 14 14 14 13 13 13 13 13 13 13 13 13 13 13 13 13 13 13 13 12 12
19 18 18 18 18 18 17 17 16 16 16 16 15 15 15 15 15 14 14 14 14 14 14 14 13 13 13 13 13 13 13 13 13 13 13 13 13 13 13 13 13 12 12
19 18 18 18 18 18 17 17 16 16 16 16 15 15 15 15 15 14 14 14 14 14 14 14 13 13 13 13 13 13 13 13 13 13 13 13 13 13 13 13 13 12 12
18 18 18 18 18 17 17 17 16 16 16 16 15 15 15 15 15 14 14 14 14 14 14 14 14 13 13 13 13 13 13 13 13 13 13 13 13 13 13 13 12 12 12
18 18 18 18 18 17 17 17 16 16 16 16 15 15 15 15 15 14 14 14 14 14 14 14 13 13 13 13 13 13 13 13 13 13 13 13 13 13 13 12 12 12 12
18 18 18 17 17 17 17 16 16 16 16 16 15 15 15 15 15 14 14 14 14 14 14 14 13 13 13 13 13 13 13 13 13 13 13 13 12 12 12 12 12 12 12
18 18 17 17 17 17 17 16 16 16 15 15 15 15 15 15 15 14 14 14 14 14 14 13 13 13 13 13 13 13 13 13 13 12 12 12 12 12 12 12 12 12 12
18 17 17 17 17 16 16 16 16 15 15 15 15 15 15 14 14 14 14 14 14 14 13 13 13 13 13 13 13 13 12 12 12 12 12 12 12 12 12 12 12 12 12
17 17 17 17 17 16 16 16 16 15 15 15 15 15 14 14 14 14 14 14 14 14 13 13 13 13 13 13 12 12 12 12 12 12 12 12 12 12 12 12 11 11 11
17 17 17 17 17 16 16 16 16 15 15 15 15 14 14 14 14 14 14 14 13 13 13 13 13 13 13 13 12 12 12 12 12 12 12 12 12 12 12 11 11 11 11
18 17 17 17 17 17 16 16 16 15 15 15 14 14 14 14 14 14 14 14 13 13 13 13 13 13 13 12 12 12 12 12 12 12 12 12 12 11 11 11 11 11 11
18 17 17 17 17 16 16 15 15 15 15 14 14 14 14 14 13 13 13 13 13 13 13 13 13 13 12 12 12 12 12 12 12 12 12 11 11 11 11 11 11 11 11
17 17 17 17 16 16 16 15 15 15 14 14 14 14 13 13 13 13 13 13 13 13 13 12 12 12 12 12 12 12 12 12 12 12 11 11 11 11 11 11 11 11 10
17 17 16 16 16 16 15 15 14 14 14 14 14 13 13 13 13 13 13 12 12 12 12 12 12 12 12 12 12 12 12 12 12 11 11 11 11 11 10 10 10 10 10
16 16 16 16 16 15 15 14 14 14 14 13 13 13 13 13 13 12 12 12 12 12 12 12 12 12 12 12 12 11 11 11 11 11 11 11 11 10 10 10 10 10 10
16 16 16 15 15 15 14 14 14 14 13 13 13 13 13 12 12 12 12 12 12 12 12 12 12 12 12 11 11 11 11 11 11 11 11 11 10 10 10 10 10 9 9
16 15 15 15 14 14 14 14 13 13 13 13 12 12 12 12 12 12 12 12 11 11 11 11 11 11 11 11 11 11 10 10 10 10 10 10 10 10 10 9 9 9 9
15 15 15 14 14 14 13 13 13 12 12 12 12 12 12 12 12 11 11 11 11 11 11 11 11 10 10 10 10 10 10 10 10 9 9 9 9 9 9 9 9 9 8
14 14 14 14 14 13 13 13 12 12 12 12 12 11 11 11 11 11 11 11 10 10 10 10 10 10 10 10 10 9 9 9 9 9 9 9 9 9 9 8 8 8 8
14 14 14 14 13 13 13 12 12 11 11 11 11 11 11 11 11 10 10 10 10 10 10 10 9 9 9 9 9 9 9 9 9 8 8 8 8 8 8 8 8 7 7
Wind_Speed
4 2 3 3 4 3 3 3 3 3 3 2 2 2 1 1 2 3 4 4 4 5 6 4 4 4 4 4 4 4 4 3 3 4 4 4 4 4 4 5 5 6 7
2 2 3 4 4 5 4 4 4 3 3 2 2 2 1 1 1 2 3 3 3 4 4 4 3 3 3 4 3 3 3 2 2 2 2 2 4 4 4 4 4 5 5
6 5 4 4 4 4 5 5 4 4 3 3 3 3 3 2 2 2 2 2 2 2 3 4 3 3 3 3 2 3 3 2 1 2 2 2 1 1 3 4 4 4 4
6 5 5 5 5 5 4 4 4 3 3 3 4 4 3 1 1 1 0 1 2 2 2 3 3 3 3 2 2 2 2 3 1 1 2 1 2 2 1 3 3 4 4
7 7 7 7 5 5 4 4 3 3 2 3 4 4 3 2 1 0 1 1 1 1 1 3 3 3 2 2 2 2 2 2 2 2 1 2 2 2 2 0 2 3 2
6 6 5 5 4 4 4 4 3 2 2 3 3 4 4 3 2 1 1 0 1 1 0 2 3 3 2 2 2 2 2 2 2 2 2 2 2 2 2 1 1 1 2
6 5 6 6 6 6 5 4 4 3 2 3 3 4 4 4 4 3 3 2 1 1 2 1 2 2 3 3 3 2 2 2 2 2 2 2 2 2 3 3 1 0 2
5 6 7 7 7 7 6 5 5 4 3 3 3 3 3 3 3 4 3 4 3 3 3 3 2 3 3 3 3 2 2 2 2 2 2 2 2 3 3 3 3 1 1
5 6 6 6 6 6 6 6 6 5 5 5 4 3 3 3 4 3 3 3 3 3 3 3 3 3 3 3 3 2 2 2 2 2 2 2 2 2 2 3 3 4 2
4 5 6 6 6 6 5 4 5 6 5 5 4 3 3 3 3 3 3 3 3 3 3 3 3 3 3 3 3 2 2 2 2 2 2 1 1 1 2 2 2 2 3
5 5 5 5 5 5 4 5 4 4 4 4 4 3 3 3 2 3 4 4 3 3 3 3 3 3 3 3 3 3 3 2 1 1 2 1 2 1 1 2 2 2 2
3 3 4 4 4 5 5 5 4 4 4 4 3 3 3 2 2 3 3 3 3 3 4 4 3 3 3 3 4 4 3 3 3 2 2 1 1 2 1 2 2 2 2
2 2 2 3 4 5 4 4 4 4 4 3 3 3 3 3 3 3 3 3 3 3 3 3 4 4 3 4 4 4 4 3 3 3 3 3 2 2 2 2 2 2 2
2 3 3 4 4 4 4 4 4 4 3 3 3 4 4 4 4 3 3 3 3 3 3 3 4 4 3 4 4 4 4 3 3 3 3 3 4 4 3 3 3 3 2
2 3 4 4 3 3 3 3 3 3 3 3 4 4 4 3 3 3 3 2 2 3 3 3 3 3 3 4 5 5 5 4 3 2 3 3 4 5 4 3 3 4 3
3 3 3 3 4 4 4 3 3 3 3 4 4 3 3 3 3 3 3 2 3 2 2 3 3 3 3 4 6 5 4 4 4 4 3 3 3 5 6 6 6 6 5
4 4 4 5 5 5 5 4 4 3 3 3 3 3 3 3 3 3 2 3 3 3 3 3 3 3 4 5 5 6 4 4 4 5 4 3 3 3 3 4 5 5 6
4 4 4 4 4 3 3 3 2 2 3 2 3 3 4 4 3 2 3 3 3 3 3 3 3 3 4 4 5 5 4 3 4 4 5 4 4 3 4 3 3 3 4
4 4 4 3 2 2 2 2 2 1 1 2 3 3 4 4 3 3 3 3 2 3 2 2 3 3 4 4 4 4 3 2 3 3 3 4 4 5 5 4 4 3 4
1 1 1 2 2 2 3 3 2 2 3 4 4 3 3 4 4 4 3 2 2 3 2 2 2 3 3 3 4 5 3 2 2 1 2 4 5 5 5 5 5 5 4
1 1 2 2 2 2 3 3 2 4 5 3 2 2 3 4 4 3 2 3 2 2 2 1 1 1 2 3 4 5 4 4 3 2 2 3 5 5 5 5 5 6 4
1 2 2 1 1 2 4 3 4 4 2 1 1 1 2 3 3 3 2 3 3 3 2 1 1 1 2 2 2 4 4 4 4 3 3 3 4 4 4 4 5 5 3
2 2 2 2 0 2 3 4 3 1 1 1 1 2 1 2 2 3 3 2 3 3 2 2 2 2 2 2 3 3 3 4 3 3 4 4 4 3 3 4 4 3 2
2 2 3 2 1 2 2 2 1 1 2 2 2 2 2 2 2 3 3 3 3 3 3 3 3 2 2 2 2 2 2 2 2 2 2 2 2 2 2 2 2 2 3
2 3 3 3 3 2 2 1 1 2 2 2 2 2 2 2 2 3 3 4 4 4 4 4 4 3 3 4 4 3 2 2 2 1 1 0 0 0 1 1 1 2 2
2 2 2 2 2 2 2 2 2 3 3 2 2 2 2 2 2 2 1 2 3 3 4 4 3 3 4 3 3 3 3 2 3 2 1 2 2 3 3 2 2 2 3
Wind_Direction
248 213 180 163 156 158 157 148 141 139 123 101 96 86 61 24 35 47 62 78 92 99 100 98 95 95 94 101 102 100 87 76 79 79 51 30 36 42 34 33 37 34 36
223 199 174 162 168 174 174 163 163 162 151 144 136 123 124 86 62 39 53 66 93 104 112 111 105 101 101 97 99 103 101 74 50 92 84 32 10 19 27 27 35 27 31
206 201 184 179 169 179 186 184 182 176 164 144 115 87 61 42 36 28 25 28 86 106 116 127 122 117 117 126 124 116 116 116 45 65 123 126 194 338 357 20 28 23 25
199 192 187 185 185 189 184 179 177 176 168 151 143 141 143 159 219 232 274 16 59 100 122 139 134 131 126 135 146 119 120 128 122 54 56 111 147 142 358 349 6 18 25
198 195 196 194 189 180 175 173 167 174 170 160 161 154 160 180 181 145 85 29 25 69 132 149 142 140 140 149 141 123 122 129 140 139 121 90 67 91 140 281 335 355 1
200 197 195 180 174 170 172 168 165 176 166 164 166 168 173 174 165 177 174 263 327 341 128 149 147 152 153 164 165 152 146 144 137 141 144 148 146 159 143 168 278 310 321
191 189 187 184 182 182 184 180 178 192 189 176 182 190 192 186 195 205 202 202 223 243 242 186 172 174 181 176 160 155 170 166 159 168 175 173 174 154 145 140 160 292 311
190 195 198 192 192 194 190 189 194 201 198 194 206 206 204 199 211 211 205 207 216 221 212 198 194 192 185 178 165 166 187 172 181 188 179 173 182 165 157 156 149 124 325
201 202 199 195 194 196 199 199 201 204 205 206 207 208 207 209 216 218 212 215 222 219 201 190 193 197 188 181 169 177 191 172 184 195 188 182 189 177 173 159 157 154 187
210 209 204 200 194 195 198 199 205 206 208 206 208 211 213 213 217 212 218 223 227 214 191 191 190 193 188 183 172 174 179 160 182 180 163 165 180 174 167 168 165 159 169
218 211 210 202 191 184 186 196 206 207 211 210 205 207 215 212 211 217 224 222 221 204 198 191 186 188 191 184 176 179 170 166 180 171 160 182 157 154 165 155 151 158 156
221 209 205 191 187 190 192 197 203 209 216 204 195 208 218 207 215 231 229 220 216 207 201 191 189 196 195 185 183 188 181 181 189 194 171 204 152 147 154 154 162 175 169
204 186 181 189 201 203 199 197 203 212 214 195 190 208 219 218 226 232 231 219 206 205 198 188 196 204 204 197 197 195 194 194 200 197 191 202 169 181 177 170 175 180 165
200 190 193 196 200 199 197 193 206 211 207 197 196 212 223 223 228 232 225 216 198 192 197 202 207 208 208 209 204 196 197 198 203 207 207 199 192 200 191 184 184 167 152
211 207 202 198 201 203 201 194 201 207 203 199 210 224 226 224 223 224 222 214 204 206 198 195 212 209 206 213 205 200 198 196 205 220 227 222 212 211 202 194 185 165 160
230 221 214 203 209 213 210 206 215 216 194 199 218 223 216 217 221 224 212 200 212 219 206 204 205 214 223 217 207 196 194 195 200 217 234 235 225 225 219 214 197 182 176
230 226 222 219 220 214 204 207 215 209 197 210 217 214 208 213 225 223 205 208 214 209 213 223 207 221 233 218 205 198 188 195 206 213 221 229 223 213 213 219 212 210 207
236 231 221 223 223 209 197 191 173 177 192 210 221 216 204 210 214 201 209 219 211 206 213 222 221 224 242 222 214 202 190 201 218 218 214 218 234 221 198 193 204 222 227
230 225 216 209 193 187 184 156 162 177 188 224 237 227 206 202 197 199 214 213 196 205 208 214 218 219 242 221 209 191 179 202 232 233 220 214 228 236 207 186 207 236 260
233 204 167 143 160 191 164 157 183 189 227 236 235 231 212 201 201 207 207 199 191 205 200 213 228 224 233 228 213 189 178 197 229 253 249 235 234 239 216 197 198 223 246
215 157 138 149 195 182 158 168 194 227 240 239 223 216 212 207 207 202 192 179 177 175 176 186 238 251 250 242 220 196 188 200 209 227 248 252 248 244 230 211 207 224 218
148 146 143 155 171 167 163 184 226 247 253 206 183 197 206 205 193 179 179 169 164 168 183 183 248 290 288 269 241 217 212 205 198 223 236 243 240 237 227 217 220 220 199
178 163 154 149 187 193 181 201 240 234 161 160 193 211 200 199 185 174 171 164 167 179 199 201 232 269 283 281 269 250 235 220 207 227 229 232 236 230 231 229 220 205 191
183 161 149 162 213 228 214 215 218 176 159 178 206 209 188 189 188 182 179 178 188 194 202 212 233 257 268 262 262 250 244 224 225 233 234 232 222 210 231 243 241 222 212
181 166 174 190 216 214 221 229 185 159 178 197 200 201 195 191 194 195 198 198 207 201 202 217 216 218 246 255 241 210 210 209 206 163 121 115 169 232 251 254 248 237 230
188 182 186 194 213 208 217 224 190 176 175 189 201 201 192 189 186 191 218 233 224 226 214 218 214 235 242 240 212 212 217 202 166 140 184 218 229 236 236 237 247 245 239
Height
1538 1540 1541 1542 1543 1544 1545 1546 1546 1546 1546 1547 1547 1547 1547 1547 1547 1547 1547 1547 1547 1547 1547 1547 1547 1547 1547 1547 1547 1548 1548 1548 1548 1548 1548 1549 1549 1549 1549 1549 1548 1548 1548
1536 1538 1540 1541 1542 1543 1544 1545 1546 1546 1546 1546 1547 1547 1547 1547 1547 1547 1547 1547 1547 1547 1547 1547 1547 1547 1548 1548 1548 1548 1548 1548 1549 1549 1548 1549 1551 1549 1549 1549 1549 1548 1548
1534 1536 1538 1539 1541 1542 1543 1544 1545 1545 1546 1546 1547 1547 1547 1547 1547 1547 1547 1548 1548 1548 1548 1548 1548 1548 1548 1548 1548 1548 1548 1548 1549 1549 1550 1549 1549 1550 1550 1549 1549 1549 1548
1532 1534 1536 1538 1539 1541 1543 1544 1544 1545 1545 1546 1546 1546 1546 1547 1547 1547 1547 1547 1547 1548 1548 1548 1548 1548 1548 1548 1548 1548 1548 1549 1549 1549 1549 1550 1550 1550 1550 1550 1549 1549 1548
1530 1532 1534 1536 1538 1540 1542 1543 1543 1544 1545 1545 1546 1546 1546 1546 1547 1547 1547 1547 1547 1547 1547 1547 1547 1548 1548 1548 1548 1548 1548 1548 1548 1549 1549 1549 1549 1549 1549 1549 1549 1549 1548
1528 1530 1533 1535 1537 1539 1540 1542 1542 1543 1544 1544 1545 1545 1545 1546 1546 1546 1546 1546 1546 1546 1547 1547 1547 1547 1547 1547 1548 1548 1548 1548 1548 1548 1548 1549 1549 1549 1548 1548 1548 1548 1548
1526 1528 1530 1533 1535 1537 1539 1540 1541 1542 1543 1543 1543 1544 1544 1544 1545 1545 1545 1545 1545 1545 1546 1546 1546 1547 1547 1547 1547 1547 1547 1548 1548 1548 1548 1548 1548 1548 1548 1548 1547 1547 1547
1524 1526 1528 1530 1533 1535 1537 1538 1539 1540 1541 1542 1542 1542 1542 1543 1543 1543 1544 1544 1544 1544 1545 1545 1545 1546 1546 1546 1546 1547 1547 1547 1547 1547 1547 1547 1547 1547 1547 1547 1547 1546 1546
1522 1524 1526 1529 1531 1533 1535 1536 1537 1538 1539 1540 1540 1541 1541 1541 1541 1542 1542 1542 1542 1543 1543 1543 1544 1544 1545 1545 1545 1545 1545 1546 1546 1546 1546 1546 1546 1546 1546 1546 1546 1547 1545
1521 1523 1525 1527 1529 1531 1533 1534 1536 1536 1537 1538 1538 1538 1539 1539 1539 1540 1540 1540 1540 1541 1541 1541 1542 1542 1543 1543 1543 1544 1544 1544 1544 1544 1544 1544 1544 1544 1544 1545 1545 1545 1545
1519 1521 1523 1524 1527 1529 1530 1532 1533 1534 1535 1535 1536 1536 1537 1537 1537 1537 1537 1538 1538 1538 1539 1539 1540 1540 1540 1541 1541 1542 1542 1542 1543 1543 1543 1543 1543 1543 1543 1543 1543 1543 1543
1518 1519 1521 1522 1524 1526 1527 1529 1530 1531 1532 1533 1533 1534 1534 1535 1535 1535 1535 1535 1535 1536 1536 1537 1537 1538 1538 1539 1540 1540 1540 1540 1541 1541 1541 1541 1541 1541 1541 1541 1541 1541 1541
1517 1518 1519 1520 1522 1523 1525 1526 1528 1529 1530 1530 1531 1532 1532 1532 1532 1533 1533 1533 1533 1533 1534 1534 1535 1535 1536 1537 1537 1538 1538 1538 1539 1539 1539 1539 1539 1539 1539 1539 1539 1539 1539
1515 1515 1516 1518 1519 1521 1522 1523 1525 1526 1527 1528 1528 1529 1529 1530 1530 1530 1530 1531 1531 1531 1531 1532 1532 1533 1533 1534 1535 1535 1536 1536 1537 1537 1537 1537 1537 1537 1537 1536 1536 1536 1536
1513 1513 1514 1515 1517 1518 1519 1520 1522 1523 1524 1525 1525 1526 1526 1527 1527 1528 1528 1528 1529 1529 1529 1530 1530 1531 1531 1532 1532 1533 1533 1534 1534 1534 1535 1535 1535 1535 1535 1534 1534 1534 1533
1511 1511 1512 1513 1514 1515 1516 1517 1519 1520 1521 1522 1522 1523 1523 1524 1524 1525 1525 1526 1526 1527 1527 1527 1527 1528 1528 1529 1529 1530 1530 1531 1531 1531 1532 1532 1532 1532 1532 1532 1531 1531 1531
1509 1509 1510 1510 1511 1512 1513 1514 1515 1517 1518 1518 1519 1519 1520 1520 1521 1522 1522 1523 1523 1524 1524 1524 1525 1525 1526 1526 1526 1527 1527 1528 1528 1528 1528 1529 1529 1529 1529 1528 1528 1528 1528
1507 1507 1508 1508 1509 1510 1510 1512 1513 1513 1514 1514 1515 1515 1516 1517 1517 1518 1518 1519 1520 1520 1521 1521 1521 1522 1522 1523 1524 1524 1524 1524 1525 1525 1525 1525 1526 1526 1526 1525 1525 1525 1525
1505 1505 1506 1506 1506 1507 1508 1508 1509 1510 1510 1511 1511 1511 1512 1512 1513 1514 1515 1515 1516 1517 1517 1518 1518 1518 1519 1520 1520 1521 1520 1521 1521 1521 1522 1522 1522 1522 1522 1521 1521 1521 1521
1502 1503 1503 1504 1504 1504 1505 1505 1505 1506 1506 1507 1507 1508 1508 1509 1509 1510 1511 1512 1513 1513 1514 1515 1515 1515 1516 1516 1517 1517 1517 1517 1517 1517 1518 1518 1518 1518 1518 1517 1517 1517 1517
1500 1500 1501 1501 1501 1501 1502 1502 1502 1502 1503 1504 1504 1504 1505 1505 1506 1507 1508 1509 1509 1510 1511 1511 1512 1512 1512 1512 1513 1513 1513 1513 1513 1513 1513 1514 1514 1514 1513 1513 1513 1513 1513
1498 1498 1498 1498 1499 1499 1499 1499 1499 1500 1501 1501 1501 1501 1501 1502 1502 1503 1504 1505 1506 1506 1507 1507 1507 1508 1508 1508 1508 1509 1509 1509 1509 1509 1509 1509 1509 1509 1509 1509 1509 1509 1509
1495 1496 1496 1496 1496 1496 1497 1497 1497 1497 1498 1498 1498 1498 1498 1499 1499 1500 1500 1501 1502 1502 1503 1503 1503 1504 1504 1504 1505 1505 1505 1505 1505 1505 1505 1505 1505 1505 1505 1505 1505 1505 1504
1493 1493 1493 1494 1494 1494 1494 1494 1495 1495 1495 1494 1494 1494 1495 1495 1496 1496 1497 1498 1498 1498 1499 1499 1500 1500 1500 1500 1501 1501 1501 1501 1501 1501 1501 1501 1501 1500 1500 1500 1500 1500 1500
1490 1491 1491 1491 1492 1492 1492 1492 1492 1492 1491 1491 1491 1491 1491 1492 1492 1493 1493 1494 1495 1495 1496 1496 1496 1496 1496 1497 1497 1497 1497 1497 1497 1497 1496 1496 1496 1496 1496 1496 1496 1496 1495
1488 1488 1488 1489 1489 1489 1489 1489 1489 1488 1488 1488 1488 1488 1488 1488 1489 1489 1490 1490 1492 1492 1493 1493 1493 1493 1493 1493 1493 1493 1493 1493 1493 1493 1492 1492 1492 1492 1492 1491 1491 1491 1491